• In Uzbekistan
  • List of Countries
  • For 7 days
  • Water Temperature
  • Satellite Maps
  • Weather Map
  • Weather Widgets
  • user-avatar
    Login

    Hourly Weather Graz

    Today, 20 February, Monday

    Time Temperature Precipitation Wind Pressure Humidity
    00:00 +1°C° 0 mm 1 mps 728 mmHg 93%
    01:00 +1°C° 0 mm 1 mps 728 mmHg 92%
    02:00 +1°C° 0 mm 1 mps 728 mmHg 91%
    03:00 +1°C° 0 mm 1 mps 728 mmHg 90%
    04:00 +2°C° 0 mm 1 mps 727 mmHg 90%
    05:00 +2°C° 0 mm 1 mps 728 mmHg 89%
    06:00 +2°C° 0 mm 1 mps 728 mmHg 89%
    07:00 +2°C° 0 mm 1 mps 728 mmHg 89%
    08:00 +3°C° 0 mm 1 mps 728 mmHg 84%
    09:00 +5°C° 0 mm 1 mps 728 mmHg 80%
    10:00 +6°C° 0 mm 1 mps 728 mmHg 76%
    11:00 +7°C° 0 mm 1 mps 728 mmHg 73%
    12:00 +8°C° 0 mm 1 mps 728 mmHg 70%
    13:00 +9°C° 0 mm 1 mps 728 mmHg 67%
    14:00 +8°C° 0 mm 1 mps 727 mmHg 71%
    15:00 +8°C° 0 mm 1 mps 727 mmHg 74%
    16:00 +7°C° 0 mm 1 mps 727 mmHg 78%
    17:00 +6°C° 0 mm 1 mps 726 mmHg 82%
    18:00 +4°C° 0 mm 1 mps 726 mmHg 85%
    19:00 +2°C° 0 mm 1 mps 726 mmHg 89%
    20:00 +2°C° 0 mm 1 mps 726 mmHg 89%
    21:00 +2°C° 0 mm 1 mps 726 mmHg 89%
    22:00 +2°C° 0 mm 1 mps 726 mmHg 89%
    23:00 +2°C° 0 mm 1 mps 725 mmHg 89%

    Tomorrow, 21 February, Tuesday

    Time Temperature Precipitation Wind Pressure Humidity
    00:00 +2°C° 0 mm 1 mps 725 mmHg 89%
    01:00 +1°C° 0 mm 2 mps 725 mmHg 89%
    02:00 +1°C° 0 mm 2 mps 725 mmHg 88%
    03:00 +2°C° 0 mm 2 mps 724 mmHg 86%
    04:00 +2°C° 0 mm 2 mps 724 mmHg 85%
    05:00 +2°C° 0.1 mm 2 mps 723 mmHg 85%
    06:00 +2°C° 0.1 mm 2 mps 723 mmHg 86%
    07:00 +2°C° 0.1 mm 2 mps 723 mmHg 86%
    08:00 +4°C° 0 mm 2 mps 723 mmHg 84%
    09:00 +5°C° 0 mm 2 mps 723 mmHg 81%
    10:00 +6°C° 0 mm 2 mps 723 mmHg 79%
    11:00 +7°C° 0.1 mm 2 mps 723 mmHg 78%
    12:00 +8°C° 0.1 mm 2 mps 723 mmHg 78%
    13:00 +9°C° 0.1 mm 2 mps 723 mmHg 77%
    14:00 +9°C° 0.1 mm 2 mps 723 mmHg 80%
    15:00 +9°C° 0.1 mm 1 mps 723 mmHg 83%
    16:00 +9°C° 0.1 mm 1 mps 723 mmHg 86%
    17:00 +8°C° 0.2 mm 1 mps 723 mmHg 89%
    18:00 +7°C° 0.2 mm 1 mps 723 mmHg 91%
    19:00 +6°C° 0.2 mm 1 mps 723 mmHg 93%
    20:00 +6°C° 0.3 mm 1 mps 724 mmHg 93%
    21:00 +6°C° 0.3 mm 1 mps 724 mmHg 93%
    22:00 +6°C° 0.3 mm 1 mps 724 mmHg 93%
    23:00 +6°C° 0.4 mm 1 mps 724 mmHg 94%

    Day after tomorrow, 22 February, Wednesday

    Time Temperature Precipitation Wind Pressure Humidity
    00:00 +6°C° 0.4 mm 1 mps 724 mmHg 94%
    01:00 +6°C° 0.4 mm 1 mps 724 mmHg 94%
    02:00 +6°C° 0.1 mm 1 mps 724 mmHg 94%
    03:00 +5°C° 0.1 mm 1 mps 723 mmHg 94%
    04:00 +5°C° 0.1 mm 1 mps 723 mmHg 94%
    05:00 +5°C° 0.1 mm 1 mps 723 mmHg 94%
    06:00 +5°C° 0.1 mm 1 mps 723 mmHg 94%
    07:00 +5°C° 0.1 mm 1 mps 723 mmHg 94%
    08:00 +6°C° 0 mm 1 mps 723 mmHg 90%
    09:00 +8°C° 0 mm 1 mps 723 mmHg 86%
    10:00 +9°C° 0 mm 1 mps 723 mmHg 82%
    11:00 +10°C° 0 mm 1 mps 723 mmHg 80%
    12:00 +11°C° 0 mm 1 mps 722 mmHg 78%
    13:00 +12°C° 0 mm 2 mps 722 mmHg 77%
    14:00 +12°C° 0 mm 2 mps 721 mmHg 79%
    15:00 +10°C° 0 mm 2 mps 721 mmHg 82%
    16:00 +10°C° 0 mm 2 mps 720 mmHg 85%
    17:00 +8°C° 0 mm 2 mps 720 mmHg 88%
    18:00 +7°C° 0 mm 2 mps 720 mmHg 91%
    19:00 +5°C° 0 mm 2 mps 720 mmHg 94%
    20:00 +5°C° 0 mm 2 mps 720 mmHg 95%
    21:00 +5°C° 0 mm 2 mps 721 mmHg 95%
    22:00 +4°C° 0 mm 2 mps 721 mmHg 95%
    23:00 +4°C° 0 mm 2 mps 721 mmHg 95%

    23 February, Thursday

    Time Temperature Precipitation Wind Pressure Humidity
    00:00 +4°C° 0 mm 2 mps 721 mmHg 95%
    01:00 +4°C° 0 mm 2 mps 721 mmHg 95%
    02:00 +4°C° 0 mm 2 mps 721 mmHg 95%
    03:00 +3°C° 0 mm 2 mps 720 mmHg 95%
    04:00 +3°C° 0 mm 2 mps 720 mmHg 94%
    05:00 +3°C° 0 mm 2 mps 720 mmHg 94%
    06:00 +4°C° 0 mm 2 mps 721 mmHg 93%
    07:00 +5°C° 0 mm 1 mps 721 mmHg 93%
    08:00 +5°C° 0 mm 2 mps 721 mmHg 89%
    09:00 +6°C° 0 mm 2 mps 721 mmHg 85%
    10:00 +8°C° 0 mm 2 mps 721 mmHg 82%
    11:00 +9°C° 0 mm 2 mps 721 mmHg 79%
    12:00 +10°C° 0 mm 2 mps 720 mmHg 77%
    13:00 +12°C° 0 mm 2 mps 720 mmHg 74%
    14:00 +11°C° 0 mm 3 mps 719 mmHg 77%
    15:00 +11°C° 0 mm 3 mps 718 mmHg 79%
    16:00 +10°C° 0 mm 3 mps 717 mmHg 82%
    17:00 +9°C° 0 mm 3 mps 717 mmHg 86%
    18:00 +7°C° 0 mm 3 mps 716 mmHg 90%
    19:00 +5°C° 0 mm 3 mps 716 mmHg 93%
    20:00 +5°C° 0 mm 3 mps 716 mmHg 94%
    21:00 +4°C° 0 mm 3 mps 716 mmHg 94%
    22:00 +4°C° 0 mm 3 mps 715 mmHg 95%
    23:00 +5°C° 0 mm 2 mps 715 mmHg 95%

    24 February, Friday

    Time Temperature Precipitation Wind Pressure Humidity
    00:00 +5°C° 0 mm 2 mps 714 mmHg 95%
    01:00 +4°C° 0 mm 2 mps 714 mmHg 95%
    02:00 +4°C° 0 mm 2 mps 714 mmHg 95%
    03:00 +4°C° 0 mm 2 mps 713 mmHg 95%
    04:00 +4°C° 0 mm 2 mps 713 mmHg 95%
    05:00 +4°C° 0 mm 2 mps 713 mmHg 95%
    06:00 +4°C° 0 mm 2 mps 713 mmHg 95%
    07:00 +4°C° 0 mm 2 mps 713 mmHg 95%
    08:00 +4°C° 0.5 mm 2 mps 713 mmHg 93%
    09:00 +5°C° 0.5 mm 2 mps 714 mmHg 90%
    10:00 +6°C° 0.5 mm 2 mps 714 mmHg 88%
    11:00 +5°C° 1.7 mm 2 mps 714 mmHg 89%
    12:00 +5°C° 1.7 mm 2 mps 714 mmHg 90%
    13:00 +4°C° 1.7 mm 2 mps 714 mmHg 91%
    14:00 +4°C° 0.9 mm 2 mps 715 mmHg 92%
    15:00 +3°C° 0.9 mm 2 mps 715 mmHg 93%
    16:00 +3°C° 0.9 mm 2 mps 716 mmHg 93%
    17:00 +3°C° 0.4 mm 2 mps 717 mmHg 93%
    18:00 +2°C° 0.4 mm 2 mps 718 mmHg 93%
    19:00 +2°C° 0.4 mm 2 mps 719 mmHg 93%
    20:00 +1°C° 0.1 mm 2 mps 719 mmHg 92%
    21:00 +1°C° 0.1 mm 2 mps 720 mmHg 91%
    22:00 +1°C° 0.1 mm 2 mps 720 mmHg 91%
    23:00 -1°C° 0 mm 2 mps 721 mmHg 90%

    25 February, Saturday

    Time Temperature Precipitation Wind Pressure Humidity
    00:00 -1°C° 0 mm 2 mps 722 mmHg 89%
    01:00 -1°C° 0 mm 2 mps 722 mmHg 89%
    02:00 -2°C° 0 mm 2 mps 723 mmHg 89%
    03:00 -2°C° 0 mm 2 mps 723 mmHg 89%
    04:00 -3°C° 0 mm 2 mps 724 mmHg 89%
    05:00 -3°C° 0 mm 2 mps 725 mmHg 88%
    06:00 -3°C° 0 mm 2 mps 726 mmHg 88%
    07:00 -4°C° 0 mm 2 mps 726 mmHg 87%
    08:00 -2°C° 0 mm 2 mps 727 mmHg 82%
    09:00 -1°C° 0 mm 2 mps 728 mmHg 77%
    10:00 +1°C° 0 mm 3 mps 729 mmHg 72%
    11:00 +2°C° 0 mm 2 mps 729 mmHg 69%
    12:00 +3°C° 0 mm 2 mps 729 mmHg 67%
    13:00 +4°C° 0 mm 2 mps 729 mmHg 65%
    14:00 +4°C° 0 mm 2 mps 729 mmHg 68%
    15:00 +5°C° 0 mm 1 mps 729 mmHg 70%
    16:00 +5°C° 0 mm 1 mps 729 mmHg 73%
    17:00 +3°C° 0 mm 1 mps 729 mmHg 79%
    18:00 +2°C° 0 mm 1 mps 729 mmHg 85%
    19:00 0°C° 0 mm 1 mps 729 mmHg 90%
    20:00 0°C° 0 mm 1 mps 729 mmHg 91%
    21:00 0°C° 0 mm 1 mps 729 mmHg 92%
    22:00 +1°C° 0 mm 1 mps 729 mmHg 92%
    23:00 +1°C° 0 mm 1 mps 729 mmHg 92%
    Show more